Location: ????????
(55.0559°N, 39.1270°E)
Time: 09:04:21
(UTC+00:00)

Cosmos 2242 Rocket - Pass Details

Date: 15 November 2025
Orbit: 614 x 644 km, 82.5° (Epoch: 14 December)

Event Time Altitude Azimuth Distance (km) Brightness Sun altitude
Rises 03:00:19 0° 200° (SSW) 2,882 6.9 -16.2°
Reaches altitude 10° 03:02:33 10° 204° (SSW) 1,984 6.0 -15.9°
Maximum altitude 03:06:54 61° 285° (WNW) 711 3.5 -15.3°
Drops below altitude 10° 03:11:20 10° 7° (N) 2,016 6.1 -14.6°
Sets 03:13:37 0° 11° (N) 2,933 7.0 -14.3°
